Sioux City, IA

6:50 PM CST on February 24, 2018 (GMT -0600)
Sioux Gateway

Weather History for KSUX - February, 2014

Change the Weather History Date:

Sunday, February 16, 2014

  Actual Average Record
Temperature  
Mean Temperature 24 °F 25 °F  
Max Temperature 34 °F 35 °F 66 °F (1981)
Min Temperature 14 °F 16 °F -25 °F (1936)
Degree Days  
Heating Degree Days 41 40  
Month to date heating degree days 809 668  
Since 1 July heating degree days 5124 4844  
Cooling Degree Days 0 0  
Month to date cooling degree days 0 0  
Year to date cooling degree days 0 0  
Moisture  
Dew Point 16 °F    
Average Humidity 68    
Maximum Humidity 81    
Minimum Humidity 54    
Precipitation  
Precipitation 0.00 in 0.02 in 0.61 in (1938)
Month to date precipitation 0.15 0.33  
Year to date precipitation 0.34 0.95  
Snow  
Snow 0.00 in 0.20 in 6.10 in (1938)
Month to date snowfall 3.5 3.8  
Since 1 July snowfall 8.8 23.7  
Snow Depth 0.00 in    
Sea Level Pressure  
Sea Level Pressure 30.06 in    
Wind  
Wind Speed 14 mph (ESE)    
Max Wind Speed 25 mph    
Max Gust Speed 32 mph    
Visibility 10 miles    
Events      
T = Trace of Precipitation, MM = Missing Value Source: NWS Daily Summary

Daily Weather History Graph

Daily Weather History Graph

Search for Another Location

Airport or City:

Trip Planner

Search our weather history database for the weather conditions in past years. The results will help you decide how hot, cold, wet, or windy it might be!

Date:

Astronomy

Feb. 16, 2014 Rise Set
Actual Time 7:20 AM CST 5:59 PM CST
Civil Twilight 6:51 AM CST 6:27 PM CST
Nautical Twilight 6:18 AM CST 7:00 PM CST
Astronomical Twilight 5:46 AM CST 7:33 PM CST
Moon 8:00 PM CST (2/16) 7:48 AM CST (2/16)
Length of Visible Light 11h 36m
Length of Day
10h 38m
Full, 97% of the Moon is Illuminated
Feb 16
Full
Feb 22
Last Quarter
Mar 1
New
Mar 8
First Quarter
Mar 16
Full

Hourly Weather History & Observations

Time (CST) Temp. Windchill Dew Point Humidity Pressure Visibility Wind Dir Wind Speed Gust Speed Precip Events Conditions
12:52 AM 24.1 °F 11.5 °F 18.0 °F 77% 30.14 in 10.0 mi North 15.0 mph - N/A   Overcast
1:52 AM 21.9 °F 11.7 °F 16.0 °F 78% 30.16 in 10.0 mi NW 9.2 mph - N/A   Overcast
2:52 AM 21.0 °F 13.4 °F 14.0 °F 74% 30.17 in 10.0 mi NNE 5.8 mph - N/A   Overcast
3:52 AM 19.0 °F 7.5 °F 12.9 °F 77% 30.18 in 10.0 mi North 10.4 mph - N/A   Overcast
4:52 AM 19.0 °F 10.0 °F 12.0 °F 74% 30.19 in 10.0 mi NNE 6.9 mph - N/A   Overcast
5:52 AM 18.0 °F 11.1 °F 12.0 °F 78% 30.19 in 10.0 mi NNE 4.6 mph - N/A   Overcast
6:52 AM 16.0 °F 5.3 °F 9.0 °F 74% 30.20 in 10.0 mi ENE 8.1 mph - N/A   Overcast
7:52 AM 15.1 °F 2.5 °F 7.0 °F 70% 30.21 in 10.0 mi ENE 10.4 mph - N/A   Overcast
8:52 AM 14.0 °F 1.2 °F 5.0 °F 67% 30.21 in 10.0 mi East 10.4 mph - N/A   Overcast
9:52 AM 16.0 °F 4.4 °F 7.0 °F 68% 30.21 in 10.0 mi ESE 9.2 mph - N/A   Overcast
10:52 AM 19.0 °F 6.1 °F 8.1 °F 62% 30.19 in 10.0 mi SE 12.7 mph - N/A   Overcast
11:52 AM 25.0 °F 11.3 °F 12.9 °F 60% 30.14 in 10.0 mi SE 18.4 mph 24.2 mph N/A   Mostly Cloudy
12:52 PM 30.0 °F 18.3 °F 17.1 °F 59% 30.10 in 10.0 mi SSE 17.3 mph 25.3 mph N/A   Clear
1:52 PM 32.0 °F 20.8 °F 17.1 °F 54% 30.05 in 10.0 mi SE 17.3 mph 25.3 mph N/A   Clear
2:52 PM 33.1 °F 21.2 °F 19.0 °F 56% 30.00 in 10.0 mi SE 20.7 mph - N/A   Clear
3:52 PM 33.1 °F 21.9 °F 19.9 °F 59% 29.98 in 10.0 mi SSE 18.4 mph 27.6 mph N/A   Clear
4:52 PM 33.1 °F 20.9 °F 21.0 °F 61% 29.95 in 10.0 mi SSE 21.9 mph 31.1 mph N/A   Clear
5:52 PM 30.9 °F 18.7 °F 21.0 °F 67% 29.94 in 10.0 mi SE 19.6 mph 27.6 mph N/A   Clear
6:52 PM 30.0 °F 20.5 °F 21.0 °F 69% 29.96 in 10.0 mi SSE 11.5 mph - N/A   Clear
7:52 PM 30.0 °F 18.3 °F 21.9 °F 72% 29.95 in 10.0 mi SSE 17.3 mph 25.3 mph N/A   Clear
8:52 PM 30.0 °F 16.9 °F 21.9 °F 72% 29.91 in 10.0 mi SSE 21.9 mph - N/A   Overcast
9:52 PM 30.0 °F 16.9 °F 21.9 °F 72% 29.89 in 10.0 mi SSE 21.9 mph 29.9 mph N/A   Clear
10:52 PM 28.9 °F 15.4 °F 21.9 °F 75% 29.86 in 10.0 mi SSE 21.9 mph 27.6 mph N/A   Partly Cloudy
11:52 PM 30.0 °F 18.7 °F 23.0 °F 75% 29.86 in 10.0 mi SSE 16.1 mph - N/A   Overcast